Location: Gad�tanya
(48.0500°N, 20.8500°E)
Time: 10:40:23
(UTC+00:00)

Helios 1A - Pass Details

Date: 05 July 2020
Orbit: 587 x 600 km, 98.2° (Epoch: 11 August)

Event Time Altitude Azimuth Distance (km) Brightness Sun altitude
Exits shadow 21:48:12 24° 112° (ESE) 1,240 4.3 -18.3°
Maximum altitude 21:49:56 34° 68° (ENE) 978 4.1 -18.3°
Drops below altitude 10° 21:53:43 10° 3° (N) 1,925 6.7 -18.5°
Sets 21:56:01 0° 354° (N) 2,832 8.1 -18.6°
